Location: Marcé
(47.5801°N, 0.3280°W)
Time: 08:37:49
(UTC+01:00)

Courier 1B - Pass Details

Date: 30 November 2021
Orbit: 962 x 1209 km, 28.3° (Epoch: 23 January)

Event Time Altitude Azimuth Distance (km) Brightness Sun altitude
Rises 20:01:34 0° 227° (SW) 3,881 11.3 -27.8°
Reaches altitude 10° 20:05:55 10° 204° (SSW) 2,866 10.2 -28.5°
Maximum altitude 20:09:12 14° 175° (S) 2,549 9.6 -29.0°
Enters shadow 20:09:49 14° 169° (S) 2,553 9.6 -29.2°
Drops below altitude 10° 20:12:24 10° 146° (SSE) 2,787 - -29.6°
Sets 20:16:31 0° 122° (ESE) 3,693 - -30.3°
